User: anonymous   Login
Location: Ottawa
(45.4170°N, 75.7000°W)
Time: 05:38:09
(UTC-04:00)
Language:

Aureole 3 Rocket - Orbit

View from above orbital plane
View from above orbital plane
View from above satellite
View from above satellite

Ground track
Ground track

The orbit data is extracted from the following two-line orbital elements,

1 12849U 81094B   14294.21724819  .00002223  00000-0  20524-3 0   211
2 12849 082.4955 190.3398 0911801 140.5399 226.5922 13.48366073611101
Epoch (UTC): 21 October 2014 05:12:50
Eccentricity: 0.0911801
inclination: 82.4955°
perigee height: 398 km
apogee height: 1758 km
right ascension of ascending node: 190.3398°
argument of perigee: 140.5399°
revolutions per day: 13.48366073
mean anomaly at epoch: 226.5922°
orbit number at epoch: 61110

The dashed part of the orbit path shows where the satellite is in the earth's shadow,  

DLR